When you browse on this site, cookies collect data to enhance your experience and personalize the content and advertising you see.
Visit our Privacy Policy to learn more. By continuing to use the site, you agree to this use of cookies and data.
  • In Czech Republic
  • List of Countries
  • For 7 days
  • Water Temperature
  • Weather Map
  • Weather Widgets
  • user-avatar
    Login

    Hourly Weather Skalbania

    Today, 6 June, Saturday

    Time Temperature Precipitation Wind Pressure Humidity
    00:00 +11°C° 0 mm 3 mps 724 mmHg 88%
    01:00 +11°C° 0 mm 4 mps 725 mmHg 87%
    02:00 +11°C° 0 mm 4 mps 725 mmHg 87%
    03:00 +11°C° 0 mm 4 mps 725 mmHg 87%
    04:00 +10°C° 0 mm 3 mps 726 mmHg 87%
    05:00 +12°C° 0 mm 4 mps 726 mmHg 82%
    06:00 +14°C° 0 mm 4 mps 726 mmHg 76%
    07:00 +15°C° 0 mm 5 mps 727 mmHg 70%
    08:00 +17°C° 0 mm 5 mps 727 mmHg 65%
    09:00 +19°C° 0 mm 5 mps 727 mmHg 60%
    10:00 +21°C° 0 mm 5 mps 728 mmHg 55%
    11:00 +21°C° 0 mm 5 mps 728 mmHg 54%
    12:00 +22°C° 0 mm 5 mps 728 mmHg 52%
    13:00 +23°C° 0 mm 5 mps 728 mmHg 51%
    14:00 +23°C° 0 mm 4 mps 728 mmHg 50%
    15:00 +24°C° 0 mm 3 mps 728 mmHg 50%
    16:00 +25°C° 0 mm 2 mps 728 mmHg 49%
    17:00 +23°C° 0 mm 2 mps 728 mmHg 57%
    18:00 +21°C° 0 mm 2 mps 728 mmHg 65%
    19:00 +19°C° 0 mm 2 mps 728 mmHg 73%
    20:00 +18°C° 0.1 mm 2 mps 728 mmHg 78%
    21:00 +17°C° 0.1 mm 2 mps 728 mmHg 83%
    22:00 +16°C° 0.1 mm 2 mps 728 mmHg 88%
    23:00 +15°C° 0 mm 2 mps 728 mmHg 89%

    Tomorrow, 7 June, Sunday

    Time Temperature Precipitation Wind Pressure Humidity
    00:00 +15°C° 0 mm 1 mps 728 mmHg 91%
    01:00 +14°C° 0 mm 1 mps 728 mmHg 92%
    02:00 +15°C° 0 mm 1 mps 728 mmHg 91%
    03:00 +15°C° 0 mm 1 mps 728 mmHg 91%
    04:00 +15°C° 0 mm 1 mps 727 mmHg 90%
    05:00 +16°C° 0 mm 1 mps 728 mmHg 87%
    06:00 +18°C° 0 mm 1 mps 728 mmHg 84%
    07:00 +19°C° 0 mm 2 mps 728 mmHg 81%
    08:00 +21°C° 0 mm 1 mps 728 mmHg 77%
    09:00 +22°C° 0 mm 1 mps 728 mmHg 73%
    10:00 +23°C° 0 mm 1 mps 728 mmHg 69%
    11:00 +23°C° 0.1 mm 1 mps 728 mmHg 69%
    12:00 +23°C° 0.1 mm 1 mps 728 mmHg 69%
    13:00 +24°C° 0.1 mm 1 mps 728 mmHg 68%
    14:00 +23°C° 1 mm 2 mps 728 mmHg 73%
    15:00 +21°C° 1 mm 3 mps 728 mmHg 77%
    16:00 +21°C° 1 mm 4 mps 727 mmHg 82%
    17:00 +20°C° 0.3 mm 3 mps 727 mmHg 84%
    18:00 +19°C° 0.3 mm 2 mps 727 mmHg 85%
    19:00 +19°C° 0.3 mm 1 mps 727 mmHg 87%
    20:00 +19°C° 0.1 mm 1 mps 727 mmHg 89%
    21:00 +17°C° 0.1 mm 2 mps 728 mmHg 91%
    22:00 +16°C° 0.1 mm 2 mps 728 mmHg 93%
    23:00 +16°C° 0.5 mm 2 mps 728 mmHg 94%

    Day after tomorrow, 8 June, Monday

    Time Temperature Precipitation Wind Pressure Humidity
    00:00 +15°C° 0.5 mm 2 mps 728 mmHg 95%
    01:00 +15°C° 0.5 mm 1 mps 728 mmHg 96%
    02:00 +15°C° 0.2 mm 1 mps 727 mmHg 96%
    03:00 +15°C° 0.2 mm 1 mps 727 mmHg 96%
    04:00 +14°C° 0.2 mm 1 mps 727 mmHg 96%
    05:00 +16°C° 0.1 mm 1 mps 727 mmHg 93%
    06:00 +18°C° 0.1 mm 1 mps 727 mmHg 89%
    07:00 +20°C° 0.1 mm 1 mps 727 mmHg 85%
    08:00 +20°C° 0.5 mm 1 mps 728 mmHg 82%
    09:00 +21°C° 0.5 mm 1 mps 728 mmHg 79%
    10:00 +21°C° 0.5 mm 2 mps 728 mmHg 76%
    11:00 +23°C° 1.7 mm 2 mps 728 mmHg 73%
    12:00 +23°C° 1.7 mm 1 mps 728 mmHg 71%
    13:00 +24°C° 1.7 mm 1 mps 728 mmHg 68%
    14:00 +23°C° 1.2 mm 2 mps 728 mmHg 74%
    15:00 +21°C° 1.2 mm 2 mps 728 mmHg 80%
    16:00 +20°C° 1.2 mm 3 mps 728 mmHg 86%
    17:00 +19°C° 0.1 mm 3 mps 728 mmHg 88%
    18:00 +18°C° 0.1 mm 3 mps 728 mmHg 90%
    19:00 +17°C° 0.1 mm 3 mps 728 mmHg 91%
    20:00 +17°C° 0 mm 3 mps 729 mmHg 92%
    21:00 +16°C° 0 mm 3 mps 729 mmHg 93%
    22:00 +14°C° 0 mm 3 mps 729 mmHg 95%
    23:00 +14°C° 0 mm 3 mps 730 mmHg 94%

    9 June, Tuesday

    Time Temperature Precipitation Wind Pressure Humidity
    00:00 +14°C° 0 mm 3 mps 730 mmHg 94%
    01:00 +14°C° 0 mm 3 mps 730 mmHg 94%
    02:00 +14°C° 0 mm 3 mps 730 mmHg 94%
    03:00 +14°C° 0 mm 3 mps 730 mmHg 94%
    04:00 +14°C° 0 mm 2 mps 730 mmHg 94%
    05:00 +15°C° 0 mm 2 mps 730 mmHg 93%
    06:00 +15°C° 0 mm 2 mps 730 mmHg 92%
    07:00 +15°C° 0 mm 2 mps 731 mmHg 91%
    08:00 +16°C° 0 mm 2 mps 731 mmHg 88%
    09:00 +17°C° 0 mm 2 mps 731 mmHg 85%
    10:00 +17°C° 0 mm 2 mps 731 mmHg 82%
    11:00 +18°C° 0 mm 2 mps 731 mmHg 79%
    12:00 +18°C° 0 mm 2 mps 731 mmHg 77%
    13:00 +19°C° 0 mm 2 mps 731 mmHg 75%
    14:00 +19°C° 0 mm 2 mps 731 mmHg 76%
    15:00 +19°C° 0 mm 3 mps 731 mmHg 78%
    16:00 +19°C° 0 mm 3 mps 731 mmHg 79%
    17:00 +18°C° 0 mm 2 mps 731 mmHg 82%
    18:00 +18°C° 0 mm 2 mps 731 mmHg 85%
    19:00 +17°C° 0 mm 2 mps 731 mmHg 88%
    20:00 +17°C° 0 mm 2 mps 731 mmHg 89%
    21:00 +16°C° 0 mm 2 mps 731 mmHg 91%
    22:00 +16°C° 0 mm 2 mps 732 mmHg 92%
    23:00 +16°C° 0 mm 2 mps 731 mmHg 93%

    10 June, Wednesday

    Time Temperature Precipitation Wind Pressure Humidity
    00:00 +16°C° 0 mm 2 mps 731 mmHg 93%
    01:00 +15°C° 0 mm 2 mps 731 mmHg 94%
    02:00 +15°C° 0 mm 2 mps 731 mmHg 94%
    03:00 +15°C° 0 mm 2 mps 731 mmHg 94%
    04:00 +15°C° 0 mm 2 mps 731 mmHg 94%
    05:00 +16°C° 0 mm 2 mps 731 mmHg 92%
    06:00 +16°C° 0 mm 2 mps 731 mmHg 90%
    07:00 +16°C° 0 mm 2 mps 731 mmHg 89%
    08:00 +17°C° 0 mm 2 mps 731 mmHg 86%
    09:00 +18°C° 0 mm 2 mps 731 mmHg 83%
    10:00 +18°C° 0 mm 2 mps 731 mmHg 80%
    11:00 +19°C° 0 mm 2 mps 731 mmHg 80%
    12:00 +19°C° 0 mm 3 mps 731 mmHg 80%
    13:00 +19°C° 0 mm 3 mps 731 mmHg 80%
    14:00 +19°C° 0 mm 3 mps 731 mmHg 80%
    15:00 +20°C° 0 mm 3 mps 731 mmHg 80%
    16:00 +20°C° 0 mm 3 mps 730 mmHg 79%
    17:00 +19°C° 0 mm 3 mps 730 mmHg 82%
    18:00 +19°C° 0 mm 2 mps 730 mmHg 85%
    19:00 +18°C° 0 mm 2 mps 730 mmHg 88%
    20:00 +18°C° 0 mm 2 mps 730 mmHg 90%
    21:00 +17°C° 0 mm 2 mps 730 mmHg 91%
    22:00 +17°C° 0 mm 2 mps 730 mmHg 93%
    23:00 +16°C° 0 mm 2 mps 730 mmHg 94%

    11 June, Thursday

    Time Temperature Precipitation Wind Pressure Humidity
    00:00 +16°C° 0 mm 2 mps 730 mmHg 94%
    01:00 +15°C° 0 mm 1 mps 730 mmHg 95%
    02:00 +15°C° 0 mm 2 mps 729 mmHg 96%
    03:00 +15°C° 0 mm 2 mps 729 mmHg 96%
    04:00 +15°C° 0 mm 2 mps 729 mmHg 97%
    05:00 +15°C° 0 mm 2 mps 729 mmHg 96%
    06:00 +16°C° 0 mm 2 mps 729 mmHg 95%
    07:00 +17°C° 0 mm 2 mps 729 mmHg 93%
    08:00 +17°C° 0.1 mm 2 mps 729 mmHg 91%
    09:00 +18°C° 0.1 mm 2 mps 729 mmHg 90%
    10:00 +18°C° 0.1 mm 3 mps 729 mmHg 88%
    11:00 +19°C° 0.1 mm 3 mps 729 mmHg 84%
    12:00 +20°C° 0.1 mm 3 mps 729 mmHg 81%
    13:00 +20°C° 0.1 mm 4 mps 729 mmHg 77%
    14:00 +20°C° 0.1 mm 4 mps 729 mmHg 78%
    15:00 +19°C° 0.1 mm 4 mps 729 mmHg 79%
    16:00 +19°C° 0.1 mm 4 mps 728 mmHg 80%
    17:00 +18°C° 0 mm 4 mps 728 mmHg 83%
    18:00 +17°C° 0 mm 4 mps 728 mmHg 85%
    19:00 +15°C° 0 mm 4 mps 728 mmHg 88%
    20:00 +16°C° 0 mm 3 mps 728 mmHg 89%
    21:00 +14°C° 0 mm 3 mps 728 mmHg 89%
    22:00 +14°C° 0 mm 3 mps 728 mmHg 90%
    23:00 +14°C° 0 mm 3 mps 728 mmHg 90%
    Show more